Aérodrome :
LOGIN :

S'inscrire | Disclaimer

   EN    FR    IT 

 










Légende :    VFR   VFR Marginal   IFR   IFR Intensif   IFR Très Intensif
Visi : 
Plafond : 
>= 8 km
>= 3000ft
5 à 8 km
1000 à 3000 ft
1500m à 5 km
500 à 1000 ft
800 à 1500m
200 à 500 ft
< 800m
< 200 ft
Symboles :   Orages  Brouillard  Fortes neiges  Fortes précipitations  Vent > 20 kt
SIGMETs :   Divers  Orages  Givrage  Turbulence  Onde Orograph.  Cendres Volcan.







- Altitude de l'aérodrome : 34 ft
- Code IATA : BLK
- Voir les cartes d'approche


EGNH - Blackpool

DERNIER METAR :
  • 231650Z 21004KT 190V250 9999 3000N BKN002 14/14 Q1013

METARs EXPIRÉS :
  • 231620Z 24005KT 9999 BKN002 14/14 Q1013
  • 231550Z 25009KT 9999 BKN002 15/14 Q1013
  • 231520Z 24008KT 9999 BKN001 15/14 Q1013
  • 231450Z 23007KT 9999 4000N -SHRA BKN002 14/14 Q1013
  • 231420Z 22008KT 9999 SCT006 15/14 Q1013

TAF AMD TAF EGNH
Valide du 23 à 15h jusqu'au 23 à 20h UTC


231539Z 2315/2320 22012KT 9999 SCT020
TEMPO 2315/2318 4000 -RADZ BKN001
ATIS : +44 1253 343 434 (x8315)
Pas de NOTAMs connus pour ce terrain.



MET'MAP, la Météo Aéronautique d'un coup d'oeil ! - Copyright ORBIFLY Décembre 2007 - Disclaimer

ORBIFLY MET'MAP TEAM :

Programmation & Développement : Alexandra Zaïnal
Conception & Développement : Baudouin d'Aumeries
Co-Programmation & Développement : Marc-Olivier Méhu
Soutien technique & logistique : Manuel Goepfert

Contact : metmap@orbifly.com




SOURCES & CREDITS :

   NOAA